Showing default

STARONE C3, 38991

Orbit data source: Space-Track

STARONE C3, 38991 is a payload satellite owned by Star One (BR) in GEO that was launched on Sat, 10 Nov 2012 UTC via an ARIANE 5ECA launch vehicle from the French Guiana (FRGUI). Payload-class satellites include a variety of spacecraft equipped with specific instruments for various scientific and technological missions. These include communications satellites like Starlink; space stations such as the ISS; scientific satellites like the Hubble; Earth observation satellites from companies like Planet Labs, Umbra, and HawkEye 360; GPS; miniature CubeSats for education and research; and military/defense satellites.

Loading next visibility...
Identifier
38991, 2012-062A
Orbit
GEO
Country
Flag of UnknownUnknown / BRAZ
Related business
Manufacturer
OSC
Mission
Operational Commercial Communications
Bus & Motor
STAR-2.4E, IHI
Mass
3,226 kg wet, ~1,530 kg dry
Launch date (UTC)
2012-11-10 (13 years ago)
Launch vehicle
ARIANE 5ECA
Launch site
French Guiana (FRGUI)
Object type
Payload
Rocket body
Debris
Shape & HBR
Box + 2 Pan, 11.5 m
Radar Cross Section
29.105 m², Large (>1 m²)

Expand to show TLE details & history
Last TLE update: 1 day ago

TLE from 1 day ago
0 STARONE C3
1 38991U 12062A   25338.48574141 -.00000234  00000-0  00000+0 0  9995
2 38991   0.0251 283.8284 0002337 334.5486 275.0596  1.00271004 47812
Epoch: 2025-12-04T11:39Z
TLE epoch observation values (Epoch: 2025-12-04T11:39:28.057Z)
Latitude
-0.038°
Longitude
-75.0202°
Altitude
35,785.429 km
Speed
3.075 km/s
True Right ascension
11h 33m 33s
True Declination
0° 02' 17"
Sunlit
Object was in daylight at epoch
Visualization orbit readout
Latitude
Unknown
Longitude
Unknown
Altitude
Unknown
Speed
Unknown
Apparent Right ascension
Unknown
Apparent Declination
Unknown
Sunlit
N/A
Visualization observer readout
Local Sidereal Time
13:24:54
Azimuth
Unknown
Elevation
Unknown
Doppler factor
Unknown
Orbital elements
Apogee altitude
35,797.738 km
Perigee altitude
35,778.03 km
Semi-major axis
42,166.021 km
Eccentricity
0.00023
Inclination
0.0251°
RAAN
283.8284°
Arg. of periapsis
334.5486°
True anomaly
275.03292°
Mean anomaly
275.0596°
Eccentric anomaly
275.04626°
Mean motion
0.25067 °/min
Orbital period
1,436.16 mins
BSTAR
0
Loading maneuver chart data...
Computing Atmospheric mass density...
Loading historical data...
Loading historical data...
Loading historical data...
Loading historical data...
Loading historical data...
Loading historical data...
Loading historical data...
Other satellites on launch #62 in the year 2012 (2012-11-10 UTC)

Documentation

Showing up to 5 results
|